When you browse on this site, cookies collect data to enhance your experience and personalize the content and advertising you see.
Visit our Privacy Policy to learn more. By continuing to use the site, you agree to this use of cookies and data.
  • En España
  • Lista de países
  • Para 7 días
  • Temperatura del agua
  • El tiempo en el mapa
  • Informadores
  • user-avatar
    Iniciar sesión

    Tiempo cada hora Zdolbunov

    Hoy, 10 Abril, Viernes

    Tiempo Temperatura Precipitaciones Viento Presión Humedad
    00:00 +11°C° 0 mm 3 mps 743 mmHg 65%
    01:00 +10°C° 0 mm 3 mps 744 mmHg 72%
    02:00 +10°C° 0 mm 3 mps 744 mmHg 77%
    03:00 +8°C° 0.1 mm 4 mps 744 mmHg 77%
    04:00 +8°C° 0.1 mm 4 mps 744 mmHg 78%
    05:00 +8°C° 0.1 mm 5 mps 744 mmHg 78%
    06:00 +7°C° 0 mm 5 mps 745 mmHg 77%
    07:00 +7°C° 0 mm 6 mps 745 mmHg 75%
    08:00 +6°C° 0 mm 7 mps 746 mmHg 73%
    09:00 +6°C° 0 mm 7 mps 747 mmHg 66%
    10:00 +6°C° 0 mm 7 mps 747 mmHg 60%
    11:00 +8°C° 0 mm 7 mps 747 mmHg 53%
    12:00 +8°C° 0 mm 7 mps 748 mmHg 47%
    13:00 +9°C° 0 mm 7 mps 748 mmHg 42%
    14:00 +9°C° 0 mm 6 mps 748 mmHg 36%
    15:00 +9°C° 0 mm 6 mps 748 mmHg 36%
    16:00 +9°C° 0 mm 6 mps 748 mmHg 36%
    17:00 +9°C° 0 mm 6 mps 747 mmHg 36%
    18:00 +7°C° 0 mm 5 mps 748 mmHg 41%
    19:00 +6°C° 0 mm 4 mps 748 mmHg 45%
    20:00 +6°C° 0 mm 2 mps 748 mmHg 50%
    21:00 +5°C° 0 mm 2 mps 748 mmHg 51%
    22:00 +5°C° 0 mm 2 mps 748 mmHg 53%
    23:00 +6°C° 0 mm 1 mps 748 mmHg 54%

    Mañana, 11 Abril, Sábado

    Tiempo Temperatura Precipitaciones Viento Presión Humedad
    00:00 +4°C° 0 mm 2 mps 748 mmHg 55%
    01:00 +4°C° 0 mm 2 mps 748 mmHg 56%
    02:00 +4°C° 0 mm 2 mps 748 mmHg 58%
    03:00 +4°C° 0 mm 2 mps 748 mmHg 59%
    04:00 +3°C° 0 mm 2 mps 748 mmHg 61%
    05:00 +3°C° 0 mm 2 mps 748 mmHg 63%
    06:00 +4°C° 0 mm 2 mps 749 mmHg 62%
    07:00 +4°C° 0 mm 3 mps 749 mmHg 61%
    08:00 +5°C° 0 mm 3 mps 749 mmHg 60%
    09:00 +7°C° 0 mm 4 mps 749 mmHg 55%
    10:00 +8°C° 0 mm 4 mps 750 mmHg 50%
    11:00 +10°C° 0 mm 4 mps 750 mmHg 45%
    12:00 +10°C° 0 mm 5 mps 750 mmHg 42%
    13:00 +10°C° 0 mm 5 mps 750 mmHg 39%
    14:00 +10°C° 0 mm 5 mps 750 mmHg 36%
    15:00 +10°C° 0 mm 5 mps 750 mmHg 36%
    16:00 +10°C° 0 mm 5 mps 750 mmHg 37%
    17:00 +9°C° 0 mm 5 mps 750 mmHg 38%
    18:00 +8°C° 0 mm 4 mps 751 mmHg 42%
    19:00 +7°C° 0 mm 3 mps 751 mmHg 47%
    20:00 +6°C° 0 mm 2 mps 751 mmHg 51%
    21:00 +5°C° 0 mm 2 mps 752 mmHg 53%
    22:00 +4°C° 0 mm 2 mps 752 mmHg 56%
    23:00 +4°C° 0 mm 2 mps 752 mmHg 58%

    Pasado mañana, 12 Abril, Domingo

    Tiempo Temperatura Precipitaciones Viento Presión Humedad
    00:00 +3°C° 0 mm 2 mps 752 mmHg 58%
    01:00 +3°C° 0 mm 2 mps 752 mmHg 57%
    02:00 +3°C° 0 mm 1 mps 752 mmHg 57%
    03:00 +2°C° 0 mm 2 mps 752 mmHg 57%
    04:00 +2°C° 0 mm 2 mps 752 mmHg 56%
    05:00 +2°C° 0 mm 2 mps 752 mmHg 56%
    06:00 +3°C° 0 mm 2 mps 751 mmHg 54%
    07:00 +3°C° 0 mm 3 mps 751 mmHg 52%
    08:00 +4°C° 0 mm 3 mps 751 mmHg 50%
    09:00 +5°C° 0 mm 3 mps 751 mmHg 47%
    10:00 +8°C° 0 mm 3 mps 751 mmHg 44%
    11:00 +9°C° 0 mm 3 mps 750 mmHg 41%
    12:00 +10°C° 0 mm 3 mps 750 mmHg 39%
    13:00 +11°C° 0 mm 3 mps 749 mmHg 37%
    14:00 +12°C° 0 mm 3 mps 749 mmHg 36%
    15:00 +12°C° 0 mm 3 mps 748 mmHg 38%
    16:00 +13°C° 0 mm 3 mps 747 mmHg 40%
    17:00 +13°C° 0 mm 3 mps 747 mmHg 42%
    18:00 +11°C° 0 mm 3 mps 746 mmHg 48%
    19:00 +10°C° 0 mm 3 mps 746 mmHg 54%
    20:00 +8°C° 0 mm 2 mps 745 mmHg 60%
    21:00 +8°C° 0 mm 2 mps 745 mmHg 62%
    22:00 +8°C° 0 mm 3 mps 745 mmHg 63%
    23:00 +8°C° 0 mm 3 mps 745 mmHg 65%

    13 Abril, Lunes

    Tiempo Temperatura Precipitaciones Viento Presión Humedad
    00:00 +8°C° 0 mm 3 mps 744 mmHg 68%
    01:00 +8°C° 0 mm 3 mps 744 mmHg 71%
    02:00 +7°C° 0 mm 3 mps 743 mmHg 73%
    03:00 +7°C° 0 mm 3 mps 743 mmHg 75%
    04:00 +6°C° 0 mm 4 mps 743 mmHg 77%
    05:00 +6°C° 0 mm 4 mps 742 mmHg 78%
    06:00 +7°C° 0 mm 4 mps 742 mmHg 74%
    07:00 +9°C° 0 mm 5 mps 742 mmHg 69%
    08:00 +10°C° 0 mm 6 mps 741 mmHg 64%
    09:00 +13°C° 0 mm 6 mps 741 mmHg 60%
    10:00 +14°C° 0 mm 6 mps 740 mmHg 56%
    11:00 +16°C° 0 mm 7 mps 740 mmHg 52%
    12:00 +17°C° 0 mm 7 mps 739 mmHg 50%
    13:00 +17°C° 0 mm 8 mps 739 mmHg 47%
    14:00 +18°C° 0 mm 8 mps 738 mmHg 44%
    15:00 +17°C° 0.2 mm 8 mps 737 mmHg 49%
    16:00 +17°C° 0.2 mm 8 mps 736 mmHg 53%
    17:00 +16°C° 0.2 mm 8 mps 736 mmHg 57%
    18:00 +15°C° 0.1 mm 7 mps 735 mmHg 60%
    19:00 +14°C° 0.1 mm 6 mps 735 mmHg 64%
    20:00 +13°C° 0.1 mm 5 mps 734 mmHg 67%
    21:00 +12°C° 0.8 mm 5 mps 734 mmHg 74%
    22:00 +10°C° 0.8 mm 5 mps 734 mmHg 81%
    23:00 +9°C° 0.8 mm 5 mps 734 mmHg 89%

    14 Abril, Martes

    Tiempo Temperatura Precipitaciones Viento Presión Humedad
    00:00 +7°C° 0.4 mm 6 mps 735 mmHg 86%
    01:00 +5°C° 0.4 mm 7 mps 735 mmHg 83%
    02:00 +4°C° 0.4 mm 7 mps 736 mmHg 80%
    03:00 +2°C° 0 mm 7 mps 737 mmHg 77%
    04:00 0°C° 0 mm 7 mps 737 mmHg 75%
    05:00 -1°C° 0 mm 7 mps 738 mmHg 72%
    06:00 -1°C° 0 mm 7 mps 739 mmHg 68%
    07:00 -1°C° 0 mm 7 mps 740 mmHg 63%
    08:00 -1°C° 0 mm 6 mps 740 mmHg 58%
    09:00 +1°C° 0 mm 6 mps 740 mmHg 53%
    10:00 +2°C° 0 mm 6 mps 740 mmHg 48%
    11:00 +3°C° 0 mm 6 mps 740 mmHg 43%
    12:00 +4°C° 0 mm 7 mps 740 mmHg 41%
    13:00 +4°C° 0 mm 7 mps 740 mmHg 40%
    14:00 +5°C° 0 mm 7 mps 740 mmHg 38%
    15:00 +5°C° 0 mm 7 mps 740 mmHg 40%
    16:00 +4°C° 0 mm 7 mps 740 mmHg 42%
    17:00 +4°C° 0 mm 7 mps 740 mmHg 44%
    18:00 +3°C° 0 mm 6 mps 740 mmHg 49%
    19:00 +2°C° 0 mm 5 mps 740 mmHg 54%
    20:00 +3°C° 0 mm 4 mps 741 mmHg 59%
    21:00 +1°C° 0 mm 5 mps 741 mmHg 63%
    22:00 +1°C° 0 mm 5 mps 741 mmHg 66%
    23:00 +1°C° 0 mm 5 mps 741 mmHg 70%

    15 Abril, Miércoles

    Tiempo Temperatura Precipitaciones Viento Presión Humedad
    00:00 -1°C° 0 mm 6 mps 741 mmHg 71%
    01:00 -2°C° 0 mm 6 mps 740 mmHg 72%
    02:00 -2°C° 0 mm 7 mps 740 mmHg 73%
    03:00 -3°C° 0 mm 7 mps 741 mmHg 74%
    04:00 -3°C° 0 mm 7 mps 741 mmHg 74%
    05:00 -4°C° 0 mm 7 mps 741 mmHg 75%
    06:00 -4°C° 0 mm 8 mps 741 mmHg 69%
    07:00 -2°C° 0 mm 8 mps 741 mmHg 64%
    08:00 -1°C° 0 mm 9 mps 742 mmHg 59%
    09:00 0°C° 0 mm 9 mps 742 mmHg 58%
    10:00 +1°C° 0 mm 9 mps 742 mmHg 57%
    11:00 +2°C° 0 mm 9 mps 741 mmHg 57%
    12:00 +2°C° 0.1 mm 8 mps 741 mmHg 57%
    13:00 +4°C° 0.1 mm 8 mps 741 mmHg 58%
    14:00 +4°C° 0.1 mm 8 mps 741 mmHg 58%
    15:00 +4°C° 0.1 mm 7 mps 741 mmHg 58%
    16:00 +4°C° 0.1 mm 7 mps 741 mmHg 58%
    17:00 +4°C° 0.1 mm 7 mps 741 mmHg 58%
    18:00 +5°C° 0.1 mm 5 mps 741 mmHg 61%
    19:00 +4°C° 0.1 mm 4 mps 740 mmHg 64%
    20:00 +3°C° 0.1 mm 3 mps 740 mmHg 68%
    21:00 +3°C° 0.5 mm 4 mps 740 mmHg 77%
    22:00 +2°C° 0.5 mm 5 mps 739 mmHg 85%
    23:00 0°C° 0.5 mm 7 mps 739 mmHg 94%
    Mostrar más